User: anonymous   Login
Location: *
(31.2983°S, 151.4094°E)
Time: 21:49:22
(UTC+00:00)
Language:

ATLAS 2AS CENTAUR R/B - Orbit

View from above orbital plane
View from above orbital plane
View from above satellite
View from above satellite

Ground track
Ground track

The orbit data is extracted from the following two-line orbital elements,

1 28096U 03054B   19264.81690108 0.00000000  00000-0  00000-0 0    05
2 28096  63.6344 128.5907 0249102 237.2372 122.8693 13.40852798    07
Epoch (UTC): 21 September 2019 19:36:20
Eccentricity: 0.0249102
inclination: 63.6344°
perigee height: 919 km
apogee height: 1292 km
right ascension of ascending node: 128.5907°
argument of perigee: 237.2372°
revolutions per day: 13.40852798
mean anomaly at epoch: 122.8693°
orbit number at epoch: 0

The dashed part of the orbit path shows where the satellite is in the earth's shadow,  

DLR